This is the latest recevied weather packets stored in our database for station/object DH9NFM-12. If no packets are shown the sender has not sent any weather packets the latest 10 day(s).
| Time | Temp. | Humidity | Pressure | Rain* | Wind** | Luminosity | Snow |
|---|---|---|---|---|---|---|---|
| 1788104337 | 22.22° C | 65% | 1014.6 hPa | 0 mm | - | - | - |
| 1788103712 | 22.22° C | 64% | 1014.6 hPa | 0 mm | - | - | - |
| 1788103088 | 22.22° C | 62% | 1014.6 hPa | 0 mm | - | - | - |
| 1788102463 | 22.22° C | 62% | 1014.6 hPa | 0 mm | - | - | - |
| 1788101838 | 22.78° C | 63% | 1014.7 hPa | 0 mm | - | - | - |
| 1788101214 | 22.22° C | 65% | 1014.6 hPa | 0 mm | - | - | - |
| 1788100589 | 22.22° C | 62% | 1014.7 hPa | 0 mm | - | - | - |
| 1788099964 | 22.78° C | 61% | 1014.7 hPa | 0 mm | - | - | - |
| 1788098090 | 23.33° C | 63% | 1014.7 hPa | 0 mm | - | - | - |
| 1788097466 | 23.33° C | 61% | 1014.7 hPa | 0 mm | - | - | - |
| 1788096841 | 23.33° C | 62% | 1014.7 hPa | 0 mm | - | - | - |
| 1788096216 | 23.33° C | 61% | 1014.8 hPa | 0 mm | - | - | - |
| 1788095592 | 23.33° C | 61% | 1014.7 hPa | 0 mm | - | - | - |
| 1788094967 | 22.78° C | 61% | 1014.7 hPa | 0 mm | - | - | - |
| 1788094342 | 23.33° C | 63% | 1014.6 hPa | 0 mm | - | - | - |
| 1788093718 | 23.33° C | 63% | 1014.8 hPa | 0 mm | - | - | - |
| 1788093093 | 22.78° C | 65% | 1014.7 hPa | 0 mm | - | - | - |
| 1788092468 | 22.78° C | 65% | 1014.7 hPa | 0 mm | - | - | - |
| 1788091219 | 22.22° C | 70% | 1014.7 hPa | 0 mm | - | - | - |
| 1788090595 | 21.67° C | 69% | 1014.8 hPa | 0 mm | - | - | - |
| 1788089970 | 22.22° C | 71% | 1014.7 hPa | 0 mm | - | - | - |
| 1788089345 | 21.11° C | 72% | 1014.8 hPa | 0 mm | - | - | - |
| 1788088720 | 21.67° C | 76% | 1014.8 hPa | 0 mm | - | - | - |
| 1788088096 | 21.11° C | 75% | 1014.8 hPa | 0 mm | - | - | - |
| 1788087471 | 21.11° C | 78% | 1014.8 hPa | 0 mm | - | - | - |
* Rain latest hour (hover to see other rain measurements)
** Current wind speed in m/s (hover to see current wind gust speed)